User: anonymous   Login
Location: Unspecified
(0.0000°N, 0.0000°E)
Time: 21:08:12
(UTC+00:00)
Language:

Cosmos 2058 - Orbit

View from above orbital plane
View from above orbital plane
View from above satellite
View from above satellite

Ground track
Ground track

The orbit data is extracted from the following two-line orbital elements,

1 20465U 90010A   19109.73206422  .00000284  00000-0  21770-4 0  9998
2 20465  82.4877 321.9918 0015202 186.7668 173.3352 14.97857161585854
Epoch (UTC): 19 April 2019 17:34:10
Eccentricity: 0.0015202
inclination: 82.4877°
perigee height: 563 km
apogee height: 584 km
right ascension of ascending node: 321.9918°
argument of perigee: 186.7668°
revolutions per day: 14.97857161
mean anomaly at epoch: 173.3352°
orbit number at epoch: 58585

The dashed part of the orbit path shows where the satellite is in the earth's shadow,  

DLR